Wind_Speed
8 8 7 8 8 7 7 6 6 5 5 5 5 4 5 5 5 5 5 5 5 6 5 5 6 6 7 7 7 8 8 8 9 10 10 11 12 12 13 14 15 16 17
8 8 8 9 9 9 8 8 8 7 7 7 6 6 6 6 7 7 6 6 7 7 7 8 8 8 8 9 9 9 10 10 11 12 12 13 14 14 15 16 17 18 19
9 9 9 9 9 9 9 9 9 8 8 9 8 8 8 8 8 8 8 9 9 9 9 9 10 10 10 10 10 11 12 13 13 14 15 15 16 17 17 18 20 21 22
10 10 9 9 10 10 11 11 10 10 10 10 10 10 10 10 10 10 10 10 10 11 11 11 12 11 12 12 13 13 14 15 16 16 17 18 19 19 20 21 22 23 23
11 10 10 10 10 11 11 12 12 12 12 11 12 12 12 12 12 12 12 12 13 13 13 14 14 14 14 14 15 16 16 17 18 19 19 20 21 22 22 23 24 25 26
11 11 11 11 11 12 12 12 13 13 13 13 14 14 14 14 14 14 14 14 15 15 15 15 16 16 16 17 17 18 19 20 20 21 21 22 23 24 25 26 27 27 28
12 12 13 13 13 13 13 13 14 14 15 15 15 16 16 16 16 16 16 16 16 16 16 17 17 17 18 18 19 20 21 21 22 23 23 24 25 26 26 27 28 28 29
13 13 14 14 15 15 14 15 15 15 16 16 17 17 17 18 18 18 18 18 18 19 19 19 19 19 19 20 21 21 22 22 23 24 24 25 26 27 27 28 28 29 29
14 15 15 16 16 15 15 16 16 16 17 17 18 19 19 19 19 19 20 20 20 21 20 20 20 21 21 21 22 22 23 24 25 25 26 27 28 28 29 30 30 31 31
16 16 17 17 16 16 17 17 17 17 17 18 19 19 19 20 20 20 21 21 21 21 22 22 22 23 23 23 23 24 25 26 26 27 28 28 29 30 31 32 32 33 33
16 17 17 17 17 17 18 18 19 19 19 19 20 20 21 21 21 21 22 22 21 22 23 24 24 25 25 26 25 26 27 27 28 29 30 30 32 33 34 35 35 36 36
17 18 17 17 17 18 18 19 19 20 20 20 21 21 21 21 21 22 22 23 23 23 24 25 26 26 27 27 28 28 28 29 30 31 32 33 34 35 36 36 37 38 39
18 18 19 19 18 19 20 20 20 21 21 21 22 22 22 22 22 23 24 24 25 25 26 26 27 27 28 29 29 30 31 32 33 33 34 35 36 37 38 39 40 41 42
19 19 20 20 20 20 21 21 21 22 22 22 23 23 23 23 24 24 25 25 26 26 27 28 28 29 30 31 32 33 33 34 35 36 37 38 39 40 41 41 42 43 43
18 19 19 20 20 21 21 21 22 22 23 23 23 24 24 25 25 26 26 27 28 28 29 29 30 31 32 32 33 34 35 36 37 37 38 39 40 41 42 43 44 44 44
18 19 19 19 20 20 20 21 22 23 24 24 24 24 25 26 27 28 28 28 29 29 30 30 31 31 32 34 35 36 37 38 38 39 40 41 42 43 44 45 46 46 46
18 18 19 19 19 20 21 21 22 23 24 24 24 25 26 27 27 28 29 29 29 30 31 32 33 33 34 35 36 37 38 39 41 42 43 44 44 45 46 47 48 48 48
20 20 20 20 20 21 21 22 23 24 25 26 26 27 27 28 29 29 31 32 32 33 33 34 34 35 37 38 39 39 40 41 43 44 45 46 47 47 48 49 49 50 51
22 22 22 22 22 23 23 24 25 25 26 26 27 28 29 30 31 32 32 33 34 34 35 36 37 38 39 40 41 42 43 44 46 47 47 48 49 50 50 51 52 53 54
23 23 24 24 24 25 25 26 27 28 28 28 29 29 30 31 32 33 33 34 35 36 37 39 40 40 41 42 43 44 46 46 47 48 49 50 51 52 52 53 54 55 56
24 24 25 26 26 26 27 28 28 29 29 29 30 30 31 32 33 35 35 36 37 38 39 40 41 42 43 44 45 46 47 47 48 49 50 52 53 54 55 56 57 58 58
25 25 26 26 27 27 28 28 29 29 30 30 31 33 34 35 35 36 36 37 38 40 41 42 43 44 45 45 46 47 48 49 50 51 52 53 54 55 56 57 58 59 59
26 26 27 27 27 27 28 29 30 30 30 31 33 34 35 36 37 38 38 39 40 41 42 43 43 44 45 46 47 48 49 51 52 53 53 54 55 56 57 58 58 59 59
26 27 27 27 27 28 29 30 30 31 32 33 34 35 37 37 38 39 40 40 41 42 43 44 45 46 47 48 49 50 51 53 53 54 54 55 56 57 57 58 58 58 57
28 28 29 29 29 29 30 31 32 33 34 35 36 37 37 38 38 39 40 41 42 44 45 45 47 48 49 50 50 51 52 53 54 54 55 55 56 56 56 56 56 55 55
30 30 30 31 31 32 33 34 35 36 36 37 38 38 38 39 40 40 41 43 44 45 46 47 49 50 51 51 52 52 53 53 54 54 54 54 55 54 54 54 54 54 54
Wind_Direction
223 222 228 233 235 236 237 242 252 255 262 271 278 285 292 298 303 312 324 329 330 327 323 315 309 306 302 301 299 295 292 288 289 291 292 289 287 287 285 284 286 285 284
225 229 233 236 237 240 243 247 254 258 262 265 270 275 282 285 292 298 303 307 309 313 312 308 307 305 300 295 292 290 290 289 288 291 294 298 293 291 289 287 287 287 287
232 235 235 238 240 245 250 255 259 259 263 266 270 273 277 280 285 292 296 299 303 305 305 305 305 304 298 294 292 292 293 292 289 290 294 295 296 293 291 290 289 289 288
237 242 240 242 248 250 255 257 261 263 265 268 272 275 277 279 283 289 292 293 296 298 300 300 302 300 295 294 294 293 293 293 292 292 292 293 294 293 293 293 293 292 292
241 245 247 250 253 258 259 260 260 263 267 272 276 276 276 277 282 285 289 292 292 293 294 295 297 297 295 295 294 293 293 292 292 293 292 292 292 293 292 292 292 292 292
246 249 253 256 258 262 262 260 262 263 266 272 276 277 278 279 280 283 286 289 291 292 291 292 293 293 293 293 294 294 294 293 293 294 294 293 293 293 293 292 292 292 292
249 252 256 257 260 262 262 262 266 266 267 271 275 277 277 278 279 281 284 287 289 290 291 292 292 291 291 292 294 295 295 295 294 295 295 295 294 294 294 294 293 293 293
255 257 258 260 262 263 262 264 267 271 271 272 275 277 278 279 279 280 283 287 289 290 291 292 291 291 291 292 293 295 296 296 296 296 297 299 299 298 297 297 296 296 295
260 261 262 264 265 263 263 265 268 272 275 275 277 278 278 278 280 282 283 285 287 289 291 292 292 292 291 291 291 293 294 295 296 297 297 298 298 298 298 298 297 296 296
261 263 263 264 265 265 266 269 272 275 277 278 278 278 279 279 280 283 283 284 286 288 290 291 291 291 291 291 292 293 294 295 296 296 297 297 298 298 298 298 298 296 296
263 264 267 266 266 267 269 272 273 275 276 279 281 280 281 280 282 284 287 288 287 289 290 290 290 291 291 291 292 293 294 295 296 296 297 297 297 297 298 298 298 297 297
265 267 268 269 269 269 270 272 274 276 277 278 280 282 282 281 282 284 287 289 288 289 290 290 290 292 292 293 293 293 294 295 296 297 297 297 297 298 298 298 298 298 299
265 268 270 272 272 272 272 272 274 277 277 278 280 280 281 282 283 284 286 288 288 288 289 291 291 292 293 293 294 294 295 295 296 296 297 298 298 298 298 298 298 299 299
266 268 270 273 272 274 274 274 274 275 277 280 282 282 282 282 283 284 285 286 288 288 289 290 291 291 291 293 294 294 295 296 296 296 297 298 298 298 298 298 298 299 299
268 268 269 273 274 275 276 277 277 278 281 282 282 283 284 284 284 284 285 285 287 287 289 290 291 292 292 293 294 296 296 297 297 298 298 298 298 298 298 299 299 299 300
269 269 271 274 276 276 276 277 278 279 280 280 282 283 283 283 284 286 287 287 288 288 289 289 290 292 293 294 295 295 296 297 297 298 298 299 299 299 299 299 298 299 299
273 276 277 278 278 278 278 279 280 281 281 281 282 282 283 285 286 286 287 288 289 290 290 290 291 292 293 293 294 295 295 296 297 298 298 299 299 299 299 299 299 299 299
274 277 280 280 282 283 284 284 284 285 285 285 284 285 286 287 287 287 288 289 290 290 290 291 292 293 293 294 294 295 296 296 297 298 298 299 299 298 299 299 299 299 298
273 277 280 281 283 284 284 285 286 287 287 287 288 288 289 290 290 291 290 290 290 290 290 291 292 293 294 294 295 296 296 297 297 298 298 298 299 298 298 298 298 298 299
274 277 279 281 283 284 284 285 286 287 288 288 290 291 291 291 292 292 292 292 292 292 292 292 292 293 294 295 295 296 297 297 297 297 298 298 298 298 298 298 298 299 299
275 278 279 280 282 283 285 286 287 288 289 289 289 291 292 292 293 293 293 292 292 293 294 294 294 295 295 296 297 297 298 298 298 298 298 298 299 299 298 298 299 299 299
274 277 280 281 282 284 286 288 287 287 289 289 289 291 293 293 294 295 295 295 295 295 295 296 296 296 297 298 298 298 299 299 299 300 300 300 300 299 300 300 300 300 300
274 277 280 282 283 285 286 288 287 287 288 290 290 291 292 293 294 294 294 295 296 296 297 297 296 297 298 299 299 299 300 300 301 301 301 301 301 300 301 301 301 301 300
277 279 281 283 284 285 287 288 288 288 289 289 290 293 294 294 295 295 295 295 296 297 298 298 298 298 299 300 300 301 301 301 302 302 302 302 302 302 302 302 302 302 302
279 280 281 283 285 286 288 289 290 290 291 291 293 294 294 295 296 296 296 296 297 298 298 298 299 300 300 300 301 301 302 302 302 302 303 303 303 303 303 303 303 303 303
279 281 282 284 285 287 289 290 291 292 293 293 294 294 294 295 296 297 298 298 298 299 299 300 300 301 302 302 302 302 302 303 303 304 304 304 304 304 304 305 305 305 305
Height
5866 5867 5868 5869 5870 5870 5871 5871 5872 5872 5872 5872 5872 5871 5871 5871 5870 5869 5868 5867 5866 5865 5864 5863 5862 5862 5861 5860 5860 5859 5859 5858 5858 5857 5856 5854 5853 5851 5850 5850 5850 5850 5849
5864 5865 5866 5867 5868 5869 5869 5870 5870 5870 5870 5870 5870 5870 5870 5869 5869 5868 5867 5867 5866 5865 5864 5863 5862 5860 5859 5859 5858 5857 5856 5856 5855 5854 5853 5851 5850 5848 5847 5847 5846 5845 5845
5862 5864 5865 5865 5866 5867 5867 5868 5868 5868 5868 5868 5868 5868 5868 5868 5867 5867 5866 5865 5864 5863 5862 5861 5860 5859 5858 5857 5856 5855 5854 5853 5852 5851 5850 5848 5847 5845 5844 5843 5842 5841 5840
5860 5861 5862 5863 5864 5865 5865 5866 5866 5866 5866 5866 5866 5866 5866 5865 5865 5865 5864 5863 5862 5861 5860 5859 5858 5857 5855 5854 5853 5852 5851 5850 5848 5847 5846 5844 5843 5841 5840 5838 5836 5835 5834
5858 5859 5860 5861 5861 5862 5862 5863 5863 5864 5864 5864 5863 5863 5863 5863 5862 5862 5861 5860 5859 5858 5857 5856 5855 5854 5852 5851 5850 5849 5847 5846 5845 5843 5842 5840 5838 5836 5835 5833 5831 5829 5827
5855 5856 5857 5858 5859 5859 5859 5860 5860 5860 5861 5861 5860 5860 5860 5859 5859 5858 5857 5857 5856 5855 5854 5853 5851 5850 5849 5848 5846 5845 5843 5842 5840 5838 5837 5835 5833 5831 5829 5827 5825 5823 5821
5853 5854 5854 5855 5855 5856 5856 5856 5857 5857 5857 5857 5857 5856 5856 5856 5855 5854 5854 5853 5852 5851 5850 5849 5847 5846 5844 5843 5842 5840 5839 5837 5835 5833 5831 5829 5827 5825 5823 5820 5818 5815 5813
5849 5850 5851 5851 5852 5852 5853 5853 5853 5853 5853 5853 5853 5852 5852 5851 5851 5850 5849 5848 5847 5846 5845 5844 5843 5841 5840 5838 5837 5835 5833 5831 5829 5828 5825 5823 5820 5818 5816 5813 5811 5808 5806
5846 5846 5847 5847 5848 5848 5849 5849 5849 5849 5849 5849 5848 5848 5847 5847 5846 5845 5844 5844 5843 5842 5840 5839 5837 5836 5835 5833 5831 5829 5827 5825 5823 5821 5819 5816 5813 5811 5808 5806 5803 5800 5798
5842 5842 5842 5843 5843 5844 5844 5845 5845 5845 5845 5844 5844 5843 5842 5842 5841 5840 5839 5838 5837 5836 5835 5833 5832 5830 5829 5827 5825 5823 5821 5819 5816 5814 5811 5809 5806 5803 5800 5797 5794 5791 5788
5837 5838 5838 5838 5839 5839 5840 5840 5840 5840 5840 5839 5839 5838 5837 5836 5835 5835 5833 5832 5831 5830 5829 5827 5826 5824 5822 5820 5819 5817 5814 5812 5809 5807 5804 5801 5798 5795 5791 5788 5785 5782 5779
5833 5833 5834 5834 5834 5835 5835 5835 5835 5835 5834 5834 5833 5832 5831 5831 5830 5829 5828 5826 5825 5824 5823 5821 5819 5817 5815 5813 5811 5809 5807 5804 5802 5799 5796 5793 5789 5786 5782 5778 5775 5771 5768
5828 5829 5829 5829 5829 5830 5830 5830 5830 5829 5829 5828 5827 5827 5826 5825 5824 5823 5821 5820 5819 5817 5816 5814 5812 5810 5808 5805 5803 5801 5798 5796 5793 5790 5787 5783 5780 5776 5772 5768 5764 5760 5756
5823 5824 5824 5824 5824 5824 5824 5824 5824 5823 5823 5822 5821 5820 5819 5818 5817 5816 5814 5813 5812 5810 5808 5806 5804 5802 5800 5797 5795 5792 5789 5787 5783 5780 5777 5773 5769 5765 5761 5757 5753 5749 5745
5818 5819 5819 5819 5819 5818 5818 5818 5817 5817 5816 5816 5815 5814 5812 5811 5810 5809 5807 5806 5804 5802 5800 5798 5796 5794 5791 5789 5786 5783 5780 5777 5773 5770 5766 5763 5758 5754 5750 5746 5741 5737 5733
5813 5813 5813 5813 5813 5813 5812 5811 5811 5811 5810 5809 5808 5807 5805 5804 5802 5801 5799 5798 5796 5794 5792 5790 5787 5785 5782 5780 5777 5774 5770 5767 5763 5759 5755 5751 5747 5743 5738 5734 5729 5724 5720
5809 5808 5808 5808 5807 5806 5806 5805 5804 5804 5803 5801 5800 5799 5798 5796 5795 5793 5792 5790 5788 5785 5783 5781 5778 5776 5773 5770 5767 5764 5760 5756 5752 5748 5744 5740 5735 5730 5726 5721 5716 5711 5706
5803 5803 5802 5802 5801 5800 5799 5798 5798 5797 5796 5794 5793 5792 5790 5789 5787 5785 5783 5781 5779 5776 5774 5772 5769 5766 5763 5760 5756 5753 5749 5745 5741 5736 5732 5727 5722 5717 5712 5707 5702 5697 5692
5797 5796 5796 5795 5794 5794 5793 5792 5791 5790 5788 5787 5785 5784 5782 5780 5778 5776 5774 5772 5769 5767 5765 5762 5759 5756 5752 5749 5745 5741 5737 5733 5728 5724 5719 5714 5708 5703 5698 5693 5687 5682 5676
5790 5790 5789 5788 5788 5787 5786 5785 5784 5782 5781 5779 5778 5776 5774 5772 5770 5767 5765 5762 5760 5757 5754 5751 5748 5744 5741 5737 5733 5729 5724 5720 5715 5710 5705 5699 5694 5688 5683 5677 5672 5666 5660
5784 5783 5782 5782 5781 5779 5778 5777 5776 5775 5773 5771 5769 5768 5766 5764 5761 5758 5756 5753 5750 5747 5743 5740 5736 5732 5728 5724 5720 5716 5711 5706 5701 5696 5690 5684 5679 5673 5667 5661 5655 5649 5643
5776 5776 5775 5774 5773 5772 5770 5769 5768 5766 5765 5763 5761 5759 5757 5754 5751 5748 5745 5742 5739 5735 5732 5728 5724 5720 5715 5711 5706 5702 5697 5692 5686 5681 5675 5669 5663 5657 5651 5645 5638 5632 5625
5769 5768 5767 5766 5765 5764 5762 5761 5759 5757 5756 5754 5752 5749 5747 5744 5741 5738 5735 5731 5728 5724 5720 5716 5712 5707 5702 5697 5692 5688 5683 5677 5671 5665 5659 5653 5647 5641 5635 5628 5622 5615 5608
5761 5760 5759 5758 5757 5756 5754 5752 5750 5749 5747 5745 5742 5740 5737 5734 5730 5727 5724 5720 5716 5712 5708 5703 5699 5694 5689 5684 5679 5673 5667 5661 5655 5649 5643 5637 5631 5625 5618 5611 5605 5598 5591
5753 5752 5751 5750 5749 5747 5745 5744 5742 5739 5737 5735 5732 5729 5726 5723 5719 5716 5712 5708 5704 5700 5695 5690 5686 5680 5675 5670 5664 5658 5652 5646 5640 5633 5627 5621 5615 5608 5601 5595 5588 5581 5575
5744 5743 5742 5741 5739 5738 5736 5734 5732 5730 5727 5724 5721 5718 5715 5711 5708 5704 5700 5696 5692 5687 5682 5677 5672 5666 5661 5655 5649 5643 5637 5631 5624 5618 5611 5605 5599 5592 5585 5579 5572 5566 5559